sat.trackr.live / text

‹ back to catalog

STARLINK-36680

NORAD 68721 · 2026-081Y

PAYLOAD ACTIVE UNKNOWN

§ Identity

Operator
Country
US
Launch date
2026-04-14
Launch site
AFETR
Launch vehicle
Mass (kg)
RCS (m²)

Purposes: comms

External: N2YO · Heavens-Above · Gunter

§ Orbital elements

Epoch: 2026-05-25T04:00:03.998880Z

Period
93.22 min
Inclination
53.1597°
Eccentricity
0.0001343
Mean motion
15.44654179 rev/d
Perigee alt
431.5 km
Apogee alt
433.3 km
Semi-major
6,810.5 km
B*
-4.2813e-2
RAAN
38.8351°
Arg perigee
110.9182°
Mean anomaly
194.3143°
Rev number
590

§ Raw data

STARLINK-366801 68721U 26081Y   26145.16671295 -.01826646  00000+0 -42813-1 0  99992 68721  53.1597  38.8351 0001343 110.9182 194.3143 15.44654179  5902

JSON: /api/v1/satellites/68721 · /tle

For live sub-satellite position, see the globe view (requires WebGL).

§ Visibility from observer

Set your observer location to see the next 7 days of passes ≥ 10°. The values pass through the URL so the page stays shareable.

No JS? Fill the form by hand. The geolocation button needs JavaScript.